FW6664 Weather Reports


Display with metric or nautical units.
time (UTC)temp
F
wind
direction
speed
MPH
gust
MPH
rain 1hr
in
rain 24hr
in
rain mn
in
humidity
%
barometer
mb
20260906200834 85 330 1.0 0.0 0.00 0.00 0.00 33 1017.0
20260906200518 84 330 1.0 3.0 0.00 0.00 0.00 33 1017.0
20260906200329 85 302 3.0 0.0 0.00 0.00 0.00 33 1017.0
20260906200010 84 302 2.0 2.0 0.00 0.00 0.00 33 1017.0
20260906195843 84 302 3.0 0.0 0.00 0.00 0.00 33 1017.0
20260906195559 84 302 0.0 2.0 0.00 0.00 0.00 33 1017.0
20260906195502 84 302 0.0 2.0 0.00 0.00 0.00 33 1017.0
20260906195338 84 302 2.0 0.0 0.00 0.00 0.00 33 1017.0
20260906195053 83 302 1.0 4.0 0.00 0.00 0.00 33 1017.0
20260906194854 84 302 1.0 0.0 0.00 0.00 0.00 33 1017.0
20260906194526 83 302 0.0 4.0 0.00 0.00 0.00 33 1017.0
20260906194331 83 302 1.0 0.0 0.00 0.00 0.00 33 1017.0
20260906194021 83 301 2.0 4.0 0.00 0.00 0.00 33 1017.0
20260906193829 83 300 4.0 0.0 0.00 0.00 0.00 33 1017.0
20260906193521 82 327 2.0 3.0 0.00 0.00 0.00 33 1017.0
20260906193326 83 328 3.0 0.0 0.00 0.00 0.00 33 1017.0
20260906193014 82 322 2.0 3.0 0.00 0.00 0.00 33 1017.0
20260906192846 83 347 0.0 0.0 0.00 0.00 0.00 33 1017.0
20260906192545 82 347 1.0 3.0 0.00 0.00 0.00 33 1017.0
20260906192342 82 343 1.0 0.0 0.00 0.00 0.00 33 1017.0
20260906192039 82 344 1.0 3.0 0.00 0.00 0.00 33 1017.0
20260906191839 82 330 1.0 0.0 0.00 0.00 0.00 33 1017.0
20260906191543 81 330 0.0 2.0 0.00 0.00 0.00 33 1017.0
20260906191336 82 330 0.0 0.0 0.00 0.00 0.00 33 1017.0
20260906191030 81 330 2.0 3.0 0.00 0.00 0.00 33 1017.0
20260906190856 82 328 1.0 0.0 0.00 0.00 0.00 33 1017.0
20260906190506 81 328 1.0 3.0 0.00 0.00 0.00 33 1017.0
20260906190333 81 326 2.0 0.0 0.00 0.00 0.00 33 1017.0
20260906190055 81 326 2.0 3.0 0.00 0.00 0.00 33 1017.0
20260906185848 82 297 1.0 0.0 0.00 0.00 0.00 33 1017.0
20260906185531 81 297 1.0 3.0 0.00 0.00 0.00 33 1017.0
20260906185325 81 297 1.0 0.0 0.00 0.00 0.00 33 1017.0
20260906185025 81 297 2.0 3.0 0.00 0.00 0.00 33 1017.0
20260906184843 81 297 1.0 0.0 0.00 0.00 0.00 33 1017.0
20260906184520 81 297 1.0 3.0 0.00 0.00 0.00 33 1017.0
20260906184339 81 297 3.0 0.0 0.00 0.00 0.00 33 1017.0
20260906184012 80 297 3.0 3.0 0.00 0.00 0.00 33 1017.0
20260906183832 81 297 2.0 0.0 0.00 0.00 0.00 33 1017.0
20260906183506 80 297 3.0 6.0 0.00 0.00 0.00 33 1017.0
20260906183330 81 297 6.0 0.0 0.00 0.00 0.00 33 1017.0
20260906183056 80 299 2.0 6.0 0.00 0.00 0.00 33 1017.0
20260906182827 81 296 3.0 0.0 0.00 0.00 0.00 33 1017.0
20260906182551 81 298 5.0 6.0 0.00 0.00 0.00 33 1017.0
20260906182346 81 289 3.0 0.0 0.00 0.00 0.00 33 1017.0
20260906182025 81 291 3.0 4.0 0.00 0.00 0.00 33 1017.0
20260906181844 81 289 6.0 0.0 0.00 0.00 0.00 33 1017.0
20260906181532 81 285 2.0 3.0 0.00 0.00 0.00 33 1017.0
20260906181341 81 284 3.0 0.0 0.00 0.00 0.00 33 1017.0
20260906181015 81 283 2.0 3.0 0.00 0.00 0.00 33 1017.0
20260906180836 81 283 3.0 0.0 0.00 0.00 0.00 33 1017.0
20260906180510 81 287 3.0 5.0 0.00 0.00 0.00 33 1017.0
20260906180355 81 296 1.0 0.0 0.00 0.00 0.00 33 1017.0
20260906180039 81 296 1.0 5.0 0.00 0.00 0.00 33 1017.0
20260906175851 81 301 5.0 0.0 0.00 0.00 0.00 33 1017.0
20260906175514 81 301 2.0 4.0 0.00 0.00 0.00 33 1017.0
20260906175327 81 300 4.0 0.0 0.00 0.00 0.00 33 1017.0
20260906175013 81 303 3.0 3.0 0.00 0.00 0.00 33 1017.0
20260906174845 81 310 3.0 0.0 0.00 0.00 0.00 33 1017.0
20260906174506 81 314 3.0 3.0 0.00 0.00 0.00 33 1017.0
20260906174341 81 315 3.0 0.0 0.00 0.00 0.00 33 1017.0
20260906174057 81 315 2.0 3.0 0.00 0.00 0.00 33 1017.0
20260906174003 81 316 2.0 3.0 0.00 0.00 0.00 33 1017.0
20260906173903 82 316 3.0 0.0 0.00 0.00 0.00 33 1017.0
20260906173529 81 316 3.0 6.0 0.00 0.00 0.00 33 1017.0
20260906173337 82 319 2.0 0.0 0.00 0.00 0.00 33 1017.0
20260906173025 81 320 2.0 6.0 0.00 0.00 0.00 33 1017.0
20260906172836 82 291 3.0 0.0 0.00 0.00 0.00 33 1017.0
20260906172518 81 302 4.0 6.0 0.00 0.00 0.00 33 1017.0
20260906172331 82 299 4.0 0.0 0.00 0.00 0.00 33 1017.0
20260906172049 81 290 3.0 5.0 0.00 0.00 0.00 33 1017.0
20260906171848 81 318 2.0 0.0 0.00 0.00 0.00 33 1017.0
20260906171522 81 318 3.0 5.0 0.00 0.00 0.00 33 1017.0
20260906171406 81 0 2.0 0.0 0.00 0.00 0.00 33 1017.0
20260906171055 81 0 2.0 3.0 0.00 0.00 0.00 33 1017.0
20260906170841 81 0 1.0 0.0 0.00 0.00 0.00 33 1017.0
20260906170549 81 0 1.0 2.0 0.00 0.00 0.00 33 1017.0
20260906170340 81 0 2.0 0.0 0.00 0.00 0.00 33 1017.0
20260906170043 81 15 1.0 2.0 0.00 0.00 0.00 33 1017.0
20260906165832 81 15 0.0 0.0 0.00 0.00 0.00 33 1017.0
20260906165535 80 15 1.0 2.0 0.00 0.00 0.00 33 1017.0
20260906165329 81 15 1.0 0.0 0.00 0.00 0.00 33 1017.0
20260906165028 80 15 0.0 1.0 0.00 0.00 0.00 33 1017.0
20260906164846 81 15 1.0 0.0 0.00 0.00 0.00 33 1017.0
20260906164519 80 15 1.0 2.0 0.00 0.00 0.00 33 1017.0
20260906164357 81 15 1.0 0.0 0.00 0.00 0.00 33 1017.0
20260906164042 80 15 1.0 2.0 0.00 0.00 0.00 33 1017.0
20260906163848 81 15 2.0 0.0 0.00 0.00 0.00 33 1017.0
20260906163532 80 15 0.0 0.0 0.00 0.00 0.00 33 1017.0
20260906163402 80 15 0.0 0.0 0.00 0.00 0.00 33 1017.0
20260906163055 79 15 0.0 0.0 0.00 0.00 0.00 33 1017.0
20260906162910 80 15 0.0 0.0 0.00 0.00 0.00 33 1017.0
20260906162524 79 15 0.0 0.0 0.00 0.00 0.00 33 1017.0
20260906162403 79 15 2.0 0.0 0.00 0.00 0.00 33 1017.0
20260906162051 79 15 0.0 0.0 0.00 0.00 0.00 33 1017.0
20260906161858 79 15 1.0 0.0 0.00 0.00 0.00 33 1017.0
20260906161527 78 15 0.0 0.0 0.00 0.00 0.00 33 1017.0
20260906161330 79 15 1.0 0.0 0.00 0.00 0.00 33 1017.0
20260906161018 78 15 0.0 1.0 0.00 0.00 0.00 33 1017.0
20260906160844 78 15 0.0 0.0 0.00 0.00 0.00 33 1017.0
20260906160503 78 15 1.0 2.0 0.00 0.00 0.00 33 1017.0
20260906160335 78 15 1.0 0.0 0.00 0.00 0.00 33 1017.0
20260906160049 78 15 1.0 2.0 0.00 0.00 0.00 33 1017.0
20260906155909 78 15 0.0 0.0 0.00 0.00 0.00 33 1017.0
20260906155519 77 15 2.0 2.0 0.00 0.00 0.00 33 1017.0
20260906155340 78 15 2.0 0.0 0.00 0.00 0.00 33 1017.0
20260906155010 77 15 0.0 1.0 0.00 0.00 0.00 33 1017.0
20260906154912 78 15 0.0 0.0 0.00 0.00 0.00 33 1017.0
20260906154544 77 15 0.0 1.0 0.00 0.00 0.00 33 1017.0
20260906154342 78 15 1.0 0.0 0.00 0.00 0.00 33 1017.0
20260906154021 77 15 1.0 1.0 0.00 0.00 0.00 33 1017.0
20260906153833 78 15 2.0 0.0 0.00 0.00 0.00 33 1017.0
20260906153515 77 15 0.0 2.0 0.00 0.00 0.00 33 1017.0
20260906153346 77 15 1.0 0.0 0.00 0.00 0.00 33 1017.0
20260906153101 77 15 0.0 2.0 0.00 0.00 0.00 33 1017.0
20260906152857 77 15 2.0 0.0 0.00 0.00 0.00 33 1017.0
20260906152523 77 15 2.0 2.0 0.00 0.00 0.00 33 1017.0
20260906152349 77 15 2.0 0.0 0.00 0.00 0.00 33 1017.0
20260906152017 77 15 0.0 0.0 0.00 0.00 0.00 33 1017.0
20260906151841 77 15 0.0 0.0 0.00 0.00 0.00 33 1017.0
20260906151503 76 15 0.0 0.0 0.00 0.00 0.00 33 1017.0
20260906151335 77 15 0.0 0.0 0.00 0.00 0.00 33 1017.0
20260906151050 76 15 0.0 1.0 0.00 0.00 0.00 33 1017.0
20260906150847 77 15 0.0 0.0 0.00 0.00 0.00 33 1017.0
20260906150541 76 15 1.0 1.0 0.00 0.00 0.00 33 1017.0
20260906150339 76 15 0.0 0.0 0.00 0.00 0.00 33 1017.0
20260906150028 76 15 0.0 0.0 0.00 0.00 0.00 33 1017.0
20260906145833 76 15 0.0 0.0 0.00 0.00 0.00 33 1017.0
20260906145520 76 15 0.0 0.0 0.00 0.00 0.00 33 1017.0
20260906145345 76 15 1.0 0.0 0.00 0.00 0.00 33 1017.0
20260906145009 76 15 0.0 0.0 0.00 0.00 0.00 33 1017.0
20260906144839 76 15 0.0 0.0 0.00 0.00 0.00 33 1017.0
20260906144609 76 15 0.0 0.0 0.00 0.00 0.00 33 1017.0
20260906144349 76 15 1.0 0.0 0.00 0.00 0.00 33 1017.0
20260906144042 76 15 0.0 1.0 0.00 0.00 0.00 33 1017.0
20260906143840 76 15 0.0 0.0 0.00 0.00 0.00 33 1017.0
20260906143534 76 15 0.0 1.0 0.00 0.00 0.00 33 1017.0
20260906143333 77 15 1.0 0.0 0.00 0.00 0.00 33 1017.0
20260906143031 76 15 0.0 0.0 0.00 0.00 0.00 33 1017.0
20260906142907 77 15 0.0 0.0 0.00 0.00 0.00 33 1017.0
20260906142549 76 15 0.0 1.0 0.00 0.00 0.00 33 1017.0
20260906142336 76 15 0.0 0.0 0.00 0.00 0.00 33 1017.0
20260906142041 76 15 0.0 1.0 0.00 0.00 0.00 33 1017.0
20260906141850 77 15 0.0 0.0 0.00 0.00 0.00 33 1017.0
20260906141530 76 15 1.0 1.0 0.00 0.00 0.00 33 1017.0
20260906141406 76 15 0.0 0.0 0.00 0.00 0.00 33 1017.0
20260906141057 76 15 0.0 0.0 0.00 0.00 0.00 33 1017.0
20260906140835 77 15 0.0 0.0 0.00 0.00 0.00 33 1017.0
20260906140546 76 15 0.0 0.0 0.00 0.00 0.00 33 1017.0
20260906140349 77 15 0.0 0.0 0.00 0.00 0.00 33 1017.0
20260906140027 76 15 0.0 0.0 0.00 0.00 0.00 33 1017.0
20260906135900 77 15 0.0 0.0 0.00 0.00 0.00 33 1017.0
20260906135545 76 15 0.0 0.0 0.00 0.00 0.00 33 1017.0
20260906091528 77 336 0.0 0.0 0.00 0.00 0.00 33 1017.0
20260906091406 77 336 1.0 0.0 0.00 0.00 0.00 33 1017.0
20260906091057 77 336 0.0 0.0 0.00 0.00 0.00 33 1017.0
20260906090904 77 336 0.0 0.0 0.00 0.00 0.00 33 1017.0
20260906090530 77 336 0.0 0.0 0.00 0.00 0.00 33 1017.0
20260906090340 77 336 0.0 0.0 0.00 0.00 0.00 33 1017.0
20260906090025 77 336 0.0 0.0 0.00 0.00 0.00 33 1017.0
20260906034502 79 295 2.0 2.0 0.00 0.00 0.00 33 1017.0
20260906034335 79 295 2.0 0.0 0.00 0.00 0.00 33 1017.0
20260906034056 79 295 2.0 2.0 0.00 0.00 0.00 33 1017.0
20260906033832 79 295 2.0 0.0 0.00 0.00 0.00 33 1017.0
20260906033550 79 295 2.0 3.0 0.00 0.00 0.00 33 1017.0
20260906033330 79 295 3.0 0.0 0.00 0.00 0.00 33 1017.0
20260906033045 79 295 2.0 3.0 0.00 0.00 0.00 33 1017.0
20260906032826 80 295 3.0 0.0 0.00 0.00 0.00 33 1017.0
20260906032537 79 295 2.0 3.0 0.00 0.00 0.00 33 1017.0
20260906032342 80 295 3.0 0.0 0.00 0.00 0.00 33 1017.0
20260906032034 79 295 2.0 3.0 0.00 0.00 0.00 33 1017.0
20260906031840 80 295 3.0 0.0 0.00 0.00 0.00 33 1017.0
20260906031528 79 295 1.0 3.0 0.00 0.00 0.00 33 1017.0
20260906031335 80 295 1.0 0.0 0.00 0.00 0.00 33 1017.0
20260906031021 80 295 2.0 3.0 0.00 0.00 0.00 33 1017.0
20260906030832 80 295 2.0 0.0 0.00 0.00 0.00 33 1017.0
20260906030521 80 295 2.0 3.0 0.00 0.00 0.00 33 1017.0
20260906030330 80 295 2.0 0.0 0.00 0.00 0.00 33 1017.0
20260906030010 80 295 1.0 3.0 0.00 0.00 0.00 33 1017.0
20260906025826 80 295 1.0 0.0 0.00 0.00 0.00 33 1017.0
20260906025505 80 295 1.0 4.0 0.00 0.00 0.00 33 1017.0
20260906025343 81 295 1.0 0.0 0.00 0.00 0.00 33 1017.0
20260906025059 80 295 3.0 4.0 0.00 0.00 0.00 33 1017.0
20260906024839 81 295 5.0 0.0 0.00 0.00 0.00 33 1017.0
20260906024551 80 295 3.0 3.0 0.00 0.00 0.00 33 1017.0
20260906024337 81 295 3.0 0.0 0.00 0.00 0.00 33 1017.0
20260906024046 81 295 2.0 4.0 0.00 0.00 0.00 33 1017.0
20260906023834 81 295 2.0 0.0 0.00 0.00 0.00 33 1017.0
20260906023542 81 295 2.0 4.0 0.00 0.00 0.00 33 1017.0
20260906023331 82 295 3.0 0.0 0.00 0.00 0.00 33 1017.0
20260906023038 81 295 2.0 5.0 0.00 0.00 0.00 33 1017.0
20260906022831 82 295 3.0 0.0 0.00 0.00 0.00 33 1017.0
20260906022532 82 295 4.0 6.0 0.00 0.00 0.00 33 1017.0
20260906022328 82 295 5.0 0.0 0.00 0.00 0.00 33 1017.0
20260906022023 82 295 4.0 6.0 0.00 0.00 0.00 33 1017.0
20260906021844 83 296 6.0 0.0 0.00 0.00 0.00 33 1017.0
20260906021518 83 295 3.0 5.0 0.00 0.00 0.00 33 1017.0
20260906021339 83 294 5.0 0.0 0.00 0.00 0.00 33 1017.0
20260906021013 83 294 3.0 4.0 0.00 0.00 0.00 33 1017.0
20260906020836 84 294 3.0 0.0 0.00 0.00 0.00 33 1017.0
20260906020509 84 294 3.0 5.0 0.00 0.00 0.00 33 1017.0
20260906020332 84 294 4.0 0.0 0.00 0.00 0.00 33 1017.0
20260906020101 84 296 3.0 5.0 0.00 0.00 0.00 33 1017.0
20260906020001 84 296 3.0 5.0 0.00 0.00 0.00 33 1017.0
20260906015829 85 297 8.0 0.0 0.00 0.00 0.00 33 1017.0
20260906015649 84 294 4.0 5.0 0.00 0.00 0.00 33 1017.0
20260906015336 85 292 4.0 0.0 0.00 0.00 0.00 33 1017.0
20260906015037 84 292 4.0 6.0 0.00 0.00 0.00 33 1017.0
20260906014854 85 302 7.0 0.0 0.00 0.00 0.00 33 1017.0
20260906014511 85 293 4.0 6.0 0.00 0.00 0.00 33 1017.0
20260906014329 86 283 6.0 0.0 0.00 0.00 0.00 33 1017.0
20260906014005 86 293 6.0 6.0 0.00 0.00 0.00 33 1017.0
20260906013827 87 293 8.0 0.0 0.00 0.00 0.00 33 1017.0
20260906013557 87 288 5.0 6.0 0.00 0.00 0.00 33 1017.0
20260906013501 87 291 5.0 6.0 0.00 0.00 0.00 33 1017.0
20260906013345 88 282 4.0 0.0 0.00 0.00 0.00 33 1017.0
20260906013034 88 283 4.0 5.0 0.00 0.00 0.00 33 1017.0
20260906012824 88 280 6.0 0.0 0.00 0.00 0.00 33 1017.0
20260906012534 88 288 2.0 6.0 0.00 0.00 0.00 33 1017.0
20260906012343 89 285 3.0 0.0 0.00 0.00 0.00 33 1017.0
20260906012026 88 301 5.0 6.0 0.00 0.00 0.00 33 1017.0
20260906011839 89 290 7.0 0.0 0.00 0.00 0.00 33 1017.0
20260906011520 89 276 4.0 6.0 0.00 0.00 0.00 33 1017.0
20260906011336 89 297 4.0 0.0 0.00 0.00 0.00 33 1017.0
20260906011014 89 301 3.0 6.0 0.00 0.00 0.00 33 1017.0
20260906010833 90 272 2.0 0.0 0.00 0.00 0.00 33 1017.0
20260906010513 89 291 4.0 6.0 0.00 0.00 0.00 33 1017.0
20260906010328 90 290 4.0 0.0 0.00 0.00 0.00 33 1017.0
20260906010005 89 295 5.0 6.0 0.00 0.00 0.00 33 1017.0
20260906005832 90 294 10.0 0.0 0.00 0.00 0.00 33 1017.0
20260906005558 90 305 3.0 5.0 0.00 0.00 0.00 33 1017.0
20260906005501 89 294 2.0 5.0 0.00 0.00 0.00 33 1017.0
20260906005330 90 294 3.0 0.0 0.00 0.00 0.00 33 1017.0
20260906005054 90 283 4.0 6.0 0.00 0.00 0.00 33 1017.0
20260906004827 90 260 4.0 0.0 0.00 0.00 0.00 33 1017.0
20260906004547 90 268 4.0 6.0 0.00 0.00 0.00 33 1017.0
20260906004406 91 276 4.0 0.0 0.00 0.00 0.00 33 1017.0
20260906004020 90 296 6.0 6.0 0.00 0.00 0.00 33 1017.0
20260906003840 91 290 9.0 0.0 0.00 0.00 0.00 33 1017.0
20260906003518 90 267 5.0 6.0 0.00 0.00 0.00 33 1017.0
20260906003356 90 259 3.0 0.0 0.00 0.00 0.00 33 1017.0
20260906003045 90 223 5.0 7.0 0.00 0.00 0.00 33 1017.0
20260906002830 91 255 8.0 0.0 0.00 0.00 0.00 33 1017.0
20260906002538 90 213 4.0 7.0 0.00 0.00 0.00 33 1017.0
20260906002346 91 245 3.0 0.0 0.00 0.00 0.00 33 1017.0
20260906002030 91 216 6.0 6.0 0.00 0.00 0.00 33 1017.0
20260906001843 91 290 6.0 0.0 0.00 0.00 0.00 33 1017.0
20260906001523 90 276 4.0 6.0 0.00 0.00 0.00 33 1017.0
20260906001337 91 221 5.0 0.0 0.00 0.00 0.00 33 1017.0
20260906001016 91 210 3.0 6.0 0.00 0.00 0.00 33 1017.0
20260906000834 91 265 5.0 0.0 0.00 0.00 0.00 33 1017.0
20260906000511 91 293 2.0 6.0 0.00 0.00 0.00 33 1017.0
20260906000333 92 290 7.0 0.0 0.00 0.00 0.00 33 1017.0
20260906000006 92 263 4.0 6.0 0.00 0.00 0.00 33 1017.0
20260905235828 92 276 6.0 0.0 0.00 0.00 0.00 33 1017.0
20260905235538 92 275 4.0 6.0 0.00 0.00 0.00 33 1017.0
20260905235326 93 279 3.0 0.0 0.00 0.00 0.00 33 1017.0
20260905235034 92 224 3.0 6.0 0.00 0.00 0.00 33 1017.0
20260905234847 92 287 5.0 0.0 0.00 0.00 0.00 33 1017.0
20260905234510 91 257 5.0 6.0 0.00 0.00 0.00 33 1017.0
20260905234344 91 294 2.0 0.0 0.00 0.00 0.00 33 1017.0
20260905234003 90 239 4.0 6.0 0.00 0.00 0.00 33 1017.0
20260905233840 90 233 3.0 0.0 0.00 0.00 0.00 33 1017.0
20260905233556 90 296 6.0 6.0 0.00 0.00 0.00 33 1017.0
20260905233336 90 239 4.0 0.0 0.00 0.00 0.00 33 1017.0
20260905233048 90 215 5.0 6.0 0.00 0.00 0.00 33 1017.0
20260905232829 91 213 4.0 0.0 0.00 0.00 0.00 33 1017.0
20260905232542 91 228 4.0 6.0 0.00 0.00 0.00 33 1017.0
20260905232327 92 283 7.0 0.0 0.00 0.00 0.00 33 1017.0
20260905232036 92 269 4.0 7.0 0.00 0.00 0.00 33 1017.0
20260905231843 93 237 5.0 0.0 0.00 0.00 0.00 33 1017.0
20260905231529 93 235 4.0 7.0 0.00 0.00 0.00 33 1017.0
20260905231344 93 249 6.0 0.0 0.00 0.00 0.00 33 1017.0
20260905231021 93 281 3.0 5.0 0.00 0.00 0.00 33 1017.0
20260905230857 93 287 6.0 0.0 0.00 0.00 0.00 33 1017.0
20260905230549 92 254 4.0 5.0 0.00 0.00 0.00 33 1017.0
20260905230330 91 291 3.0 0.0 0.00 0.00 0.00 33 1017.0
20260905230043 90 285 3.0 5.0 0.00 0.00 0.00 33 1017.0
20260905225849 91 286 5.0 0.0 0.00 0.00 0.00 33 1017.0
20260905225513 90 245 3.0 8.0 0.00 0.00 0.00 33 1017.0
20260905225341 91 168 4.0 0.0 0.00 0.00 0.00 33 1017.0
20260905225104 91 229 5.0 8.0 0.00 0.00 0.00 33 1017.0
20260905225003 91 240 6.0 8.0 0.00 0.00 0.00 33 1017.0
20260905224834 92 284 3.0 0.0 0.00 0.00 0.00 33 1017.0
20260905224555 91 228 3.0 6.0 0.00 0.00 0.00 33 1017.0
20260905224330 92 216 7.0 0.0 0.00 0.00 0.00 33 1017.0
20260905224051 91 268 4.0 6.0 0.00 0.00 0.00 33 1017.0
20260905223849 92 217 2.0 0.0 0.00 0.00 0.00 33 1017.0
20260905223524 91 268 3.0 6.0 0.00 0.00 0.00 33 1017.0
20260905223347 91 241 4.0 0.0 0.00 0.00 0.00 33 1017.0
20260905223021 90 258 3.0 6.0 0.00 0.00 0.00 33 1017.0
20260905222844 91 233 2.0 0.0 0.00 0.00 0.00 33 1017.0
20260905222517 91 216 4.0 7.0 0.00 0.00 0.00 33 1017.0
20260905222341 92 223 6.0 0.0 0.00 0.00 0.00 33 1017.0
20260905222013 91 226 5.0 7.0 0.00 0.00 0.00 33 1017.0
20260905221836 92 284 5.0 0.0 0.00 0.00 0.00 33 1017.0
20260905221506 91 290 5.0 7.0 0.00 0.00 0.00 33 1017.0
20260905221334 92 248 2.0 0.0 0.00 0.00 0.00 33 1017.0
20260905221057 91 304 4.0 7.0 0.00 0.00 0.00 33 1017.0
20260905220830 91 286 3.0 0.0 0.00 0.00 0.00 33 1017.0
20260905220551 90 236 5.0 6.0 0.00 0.00 0.00 33 1017.0
20260905220327 91 296 5.0 0.0 0.00 0.00 0.00 33 1017.0
20260905220049 90 254 4.0 6.0 0.00 0.00 0.00 33 1017.0
20260905215908 90 297 2.0 0.0 0.00 0.00 0.00 33 1017.0
20260905215520 90 229 3.0 9.0 0.00 0.00 0.00 33 1017.0
20260905215342 91 255 7.0 0.0 0.00 0.00 0.00 33 1017.0
20260905215014 91 256 6.0 9.0 0.00 0.00 0.00 33 1017.0
20260905214838 92 276 3.0 0.0 0.00 0.00 0.00 33 1017.0
20260905214507 91 223 3.0 8.0 0.00 0.00 0.00 33 1017.0
20260905214334 92 289 7.0 0.0 0.00 0.00 0.00 33 1017.0
20260905214006 92 248 4.0 7.0 0.00 0.00 0.00 33 1017.0
20260905213832 92 222 6.0 0.0 0.00 0.00 0.00 33 1017.0
20260905213535 92 274 3.0 6.0 0.00 0.00 0.00 33 1017.0
20260905213348 92 260 4.0 0.0 0.00 0.00 0.00 33 1017.0
20260905213026 91 279 3.0 6.0 0.00 0.00 0.00 33 1017.0
20260905212844 92 229 7.0 0.0 0.00 0.00 0.00 33 1017.0
20260905212519 91 253 4.0 6.0 0.00 0.00 0.00 33 1017.0
20260905212341 92 218 6.0 0.0 0.00 0.00 0.00 33 1017.0
20260905212017 92 207 5.0 7.0 0.00 0.00 0.00 33 1017.0
20260905211838 92 275 6.0 0.0 0.00 0.00 0.00 33 1017.0
20260905211508 92 271 6.0 7.0 0.00 0.00 0.00 33 1017.0
20260905211336 92 208 4.0 0.0 0.00 0.00 0.00 33 1017.0
20260905211059 92 283 6.0 7.0 0.00 0.00 0.00 33 1017.0
20260905211003 92 235 4.0 7.0 0.00 0.00 0.00 33 1017.0
20260905210830 93 293 4.0 0.0 0.00 0.00 0.00 33 1017.0
20260905210553 92 238 5.0 7.0 0.00 0.00 0.00 33 1017.0
20260905210348 93 230 6.0 0.0 0.00 0.00 0.00 33 1017.0
20260905210036 92 244 4.0 6.0 0.00 0.00 0.00 33 1017.0
20260905205846 93 291 4.0 0.0 0.00 0.00 0.00 33 1017.0
20260905205526 92 226 3.0 6.0 0.00 0.00 0.00 33 1017.0
20260905205341 92 273 5.0 0.0 0.00 0.00 0.00 33 1017.0
20260905205016 92 221 6.0 6.0 0.00 0.00 0.00 33 1017.0
20260905204839 93 247 7.0 0.0 0.00 0.00 0.00 33 1017.0
20260905204511 92 286 6.0 7.0 0.00 0.00 0.00 33 1017.0
20260905204355 93 215 6.0 0.0 0.00 0.00 0.00 33 1017.0
20260905204039 92 217 3.0 7.0 0.00 0.00 0.00 33 1017.0
20260905203832 93 196 2.0 0.0 0.00 0.00 0.00 33 1017.0
20260905203538 92 281 6.0 7.0 0.00 0.00 0.00 33 1017.0
20260905203327 93 223 9.0 0.0 0.00 0.00 0.00 33 1017.0
20260905203028 94 225 5.0 7.0 0.00 0.00 0.00 33 1017.0
20260905202844 95 244 5.0 0.0 0.00 0.00 0.00 33 1017.0
20260905202525 94 276 3.0 6.0 0.00 0.00 0.00 33 1017.0
20260905202344 94 300 7.0 0.0 0.00 0.00 0.00 33 1017.0
20260905202021 93 276 4.0 6.0 0.00 0.00 0.00 33 1017.0
20260905201841 94 291 4.0 0.0 0.00 0.00 0.00 33 1017.0
20260905201515 94 263 5.0 6.0 0.00 0.00 0.00 33 1017.0
20260905201336 94 273 7.0 0.0 0.00 0.00 0.00 33 1017.0